Simultaneous Nadir Overpasses (SNOs) Predictions

Prediction of SNOs between NOAA-19 and TERRA Satellite Orbit:

Table of predicted SNOs for the next 14.0 days since TLE Epoch: 11/13/2020
Index Date (NOAA-19) Time (NOAA-19) Lat,Lon (NOAA-19) SZA (NOAA-19 ) Date (TERRA) Time (TERRA) Lat,Lon (TERRA) SZA (TERRA ) Distance(km) Time Diff (sec)
1 11/14/2020 12:57:15 -80.00,-165.60 80.12 11/14/2020 12:58:25 -79.88,-163.65 80.02 40.41 70
2 11/14/2020 13:48:04 79.85, 3.64 99.94 11/14/2020 13:47:52 79.84, 3.72 99.94 1.60 12
3 11/16/2020 19:21:23 -79.84, 100.47 79.51 11/16/2020 19:21:36 -79.85, 100.33 79.51 2.91 13
4 11/16/2020 20:12:14 79.73, -90.99 100.54 11/16/2020 20:11:02 79.85, -92.03 100.51 24.41 72
5 11/19/2020 00:54:33 79.86,-162.98 101.02 11/19/2020 00:55:19 79.85,-163.10 101.01 2.78 46
6 11/19/2020 01:45:37 -79.83, 4.68 78.97 11/19/2020 01:44:46 -79.85, 4.57 78.98 3.81 51
7 11/21/2020 06:27:53 -79.88, -66.39 78.50 11/21/2020 06:29:03 -79.85, -66.50 78.50 3.24 70
8 11/21/2020 07:18:47 79.85, 101.19 101.52 11/21/2020 07:18:29 79.85, 101.11 101.51 1.59 18
9 11/23/2020 12:52:07 -79.86,-162.22 78.03 11/23/2020 12:52:13 -79.85,-162.30 78.04 1.94 6
10 11/25/2020 18:25:16 79.87, -65.45 102.41 11/25/2020 18:25:55 79.88, -65.55 102.42 2.36 39
